ARIANE 5 DEB [SYLDA] (43177 NORAD) Tracking and Keplerian Element Data

This shows tracking and keplerian element data for the satellite.

Feedback or suggestion? Click here.




ElementValue
Catalog43177
NameARIANE 5 DEB [SYLDA]
Epoch Orbit43
Epoch Day48.6792715
Epoch Year2018
RAAN227.716
Inclination20.5744
Eccentricity0.7640071
Argument of Perigee242.3838
Mean Anonmoly23.4824
Mean Motion1.85440328
Decay Rate0.00017636
L11 43177U 18012D 18048.67927150 .00017636 00000-0 41552-2 0 9994
L22 43177 20.5744 227.7160 7640071 242.3838 23.4824 1.85440328 431

Live tracking and technical data element details for ARIANE 5 DEB [SYLDA] (NORAD 43177). ARIANE 5 DEB [SYLDA] can be tracked NOW for your location showing map with azimuth and elevation plus other details from your city location.

Track the satellite on the map from your city or location and see movement details for azimuth, elevation, latitude, longitude, range, height, and movement on the map or in text.







IsCatalogInMostPopularTable: catalog: 43177, numindb: 138
Update: records affected: 1



GetName: 43177 ARIANE 5 DEB [SYLDA]

Hit Count: updated at: Mon, 19 Nov 2018 12:20:18 GMT